NOAA NWS Hourly Roundups by Site

Regional Weather Roundup for Seattle, WA

To Select Another Site Choose from List

Select Site:  

000
ASUS46 KSEW 211820
RWRWA

WASHINGTON REGIONAL WEATHER ROUNDUP
NATIONAL WEATHER SERVICE SEATTLE WA
1100 AM PDT WED OCT 21 2020

NOTE:"FAIR" INDICATES FEW OR NO CLOUDS BELOW 12,000 FEET WITH NO
SIGNIFICANT WEATHER AND/OR OBSTRUCTIONS TO VISIBILITY.

WAZ507-509-555>559-211900-
SEATTLE, TACOMA, EVERETT, AND VICINITY

CITY           SKY/WX    TMP DP  RH WIND       PRES   REMARKS
EVERETT        LGT RAIN  46  38  73 W7        30.12R
6HR MIN TEMP:  45; 6HR MAX TEMP:  50; 6HR PCP:  0.01;

BOEING FIELD   PTSUNNY   51  43  74 SE6       30.13R
6HR MIN TEMP:  47; 6HR MAX TEMP:  52;

RENTON         PTSUNNY   51  44  77 SE3       30.13R
6HR MIN TEMP:  46; 6HR MAX TEMP:  51; 6HR PCP:  0.01;

SEATAC AIRPORT PTSUNNY   50  43  77 SW5       30.12R
6HR MIN TEMP:  47; 6HR MAX TEMP:  51; 6HR PCP:  0.01;

JBLM-MCCHORD   MOSUNNY   53  40  62 W9        30.12S
6HR MIN TEMP:  37; 6HR MAX TEMP:  53;

PUYALLUP       CLOUDY    52  43  71 SW6       30.12S
BREMERTON      PTSUNNY   48  44  86 NE3       30.12R
6HR MIN TEMP:  41; 6HR MAX TEMP:  48;

JBLM-FT LEWIS  MOSUNNY   53  45  75 SW16      30.11S
6HR MIN TEMP:  40; 6HR MAX TEMP:  53;

TACOMA NARROWS MOSUNNY   51  39  63 CALM      30.12S
6HR MIN TEMP:  41; 6HR MAX TEMP:  51;

$$

WAZ001-503-506-510-514-515-211900-
NORTH INTERIOR

CITY           SKY/WX    TMP DP  RH WIND       PRES   REMARKS
BELLINGHAM     PTSUNNY   50  41  71 W7        30.12R
6HR MIN TEMP:  41; 6HR MAX TEMP:  50;

FRIDAY HARBOR  PTSUNNY   50  39  66 VRB6      30.14R
6HR MIN TEMP:  38; 6HR MAX TEMP:  51;

EASTSOUND      PTSUNNY   50  41  71 W6G14     30.13R
PORT ANGELES   MOSUNNY   51  42  71 W10       30.15R
6HR MIN TEMP:  44; 6HR MAX TEMP:  51; 6HR PCP: TRACE;

EDIZ HOOK      NOT AVBL
PORT TOWNSEND  PTSUNNY   52  45  76 NW10      30.13R
NAS WHIDBEY    PTSUNNY   50  40  68 NW7       30.18R
6HR MIN TEMP:  49; 6HR MAX TEMP:  52; 6HR PCP:  0.01;

ARLINGTON      CLOUDY    46  43  89 CALM      30.14R
6HR MIN TEMP:  45; 6HR MAX TEMP:  49; 6HR PCP:  0.01;

BURLINGTON     SUNNY     55  41  58 NW8G16    30.13R
$$

WAZ020-022-039-040-504-511-512-211900-
SOUTHWEST INTERIOR

CITY           SKY/WX    TMP DP  RH WIND       PRES   REMARKS
SHELTON        SUNNY     53  42  66 W16       30.10R
6HR MIN TEMP:  43; 6HR MAX TEMP:  53;

OLYMPIA        SUNNY     54  38  54 W15G22    30.13R
6HR MIN TEMP:  47; 6HR MAX TEMP:  54;

CHEHALIS       FAIR      54  43  66 W8G18     30.15S
KELSO          PTSUNNY   53  46  77 CALM      30.19R
6HR MIN TEMP:  44; 6HR MAX TEMP:  54; 6HR PCP: TRACE;

VANCOUVER      PTSUNNY   53  42  66 NW7       30.18F
6HR MIN TEMP:  48; 6HR MAX TEMP:  53; 6HR PCP: TRACE;

SCAPPOOSE, OR  PTSUNNY   54  45  71 W5        30.18S
6HR MIN TEMP:  43; 6HR MAX TEMP:  54; 6HR PCP:  0.01;

PORTLAND, OR   PTSUNNY   53  45  74 W7        30.19S
6HR MIN TEMP:  50; 6HR MAX TEMP:  53; 6HR PCP:  0.01;

$$

WAZ021-516-517-211900-
WASHINGTON COAST

CITY           SKY/WX    TMP DP  RH WIND       PRES   REMARKS
FORKS          MOSUNNY   52  42  69 W10G17    30.15R
6HR MIN TEMP:  43; 6HR MAX TEMP:  52; 6HR PCP: TRACE;

HOQUIAM        SUNNY     53  33  46 NW9G20    30.17R
6HR MIN TEMP:  45; 6HR MAX TEMP:  53; 6HR PCP:  0.06;

ASTORIA, OR    MOSUNNY   53  44  71 N13       30.20R
6HR MIN TEMP:  46; 6HR MAX TEMP:  54; 6HR PCP:  0.07;

$$

WAZ019-023-024-040-567>569-211900-
CASCADE MOUNTAINS AND COLUMBIA GORGE

CITY           SKY/WX    TMP DP  RH WIND       PRES   REMARKS
STAMPEDE PASS  SNOW      32  30  92 W3        30.03R VSB 1/2
6HR MIN TEMP:  32; 6HR MAX TEMP:  34; 6HR PCP:  0.56;

TROUTDALE, OR  CLOUDY    53  45  74 W3        30.18S
6HR MIN TEMP:  50; 6HR MAX TEMP:  53; 6HR PCP:  0.01;

HOOD RIVER, OR CLOUDY    52  37  58 W6        30.12R
THE DALLES, OR MOSUNNY   55  35  47 W24       30.09S
6HR MIN TEMP:  50; 6HR MAX TEMP:  55; 6HR PCP: TRACE;

$$

WAZ026-027-041>044-520-521-211900-
EAST SLOPES

CITY           SKY/WX    TMP DP  RH WIND       PRES   REMARKS
OMAK           MOSUNNY   47  32  56 NW6       30.03R
6HR MIN TEMP:  37; 6HR MAX TEMP:  48; 6HR PCP: TRACE;

WENATCHEE      MOSUNNY   49  31  49 W16       30.01R
6HR MIN TEMP:  36; 6HR MAX TEMP:  50;

ELLENSBURG     MOSUNNY   49  33  54 NW25G31   30.01S
6HR MIN TEMP:  37; 6HR MAX TEMP:  49; 6HR PCP: TRACE;

YAKIMA         MOSUNNY   53  33  46 N7        30.04R
6HR MIN TEMP:  30; 6HR MAX TEMP:  53;

SUNNYSIDE ARPT CLEAR     55  35  47 W9G18     30.03S
6HR MIN TEMP:  32; 6HR MAX TEMP:  53;

YAKIMA TC      MOCLDY    48  32  53 S3        30.02R
6HR MIN TEMP:  34; 6HR MAX TEMP:  48;

$$

WAZ028-034-035-211900-
COLUMBIA BASIN

CITY           SKY/WX    TMP DP  RH WIND       PRES   REMARKS
EPHRATA        MOSUNNY   49  31  49 N21       30.00R
6HR MIN TEMP:  36; 6HR MAX TEMP:  51;

MOSES LAKE     LGT RAIN  56  29  35 N22G30    29.99R
6HR MIN TEMP:  36; 6HR MAX TEMP:  56; 6HR PCP: TRACE;

PASCO          SUNNY     58  36  43 W12       30.02S
6HR MIN TEMP:  35; 6HR MAX TEMP:  58;

RICHLAND ARPT  PTCLDY    58  35  42 SW5       30.02
6HR MIN TEMP:  42; 6HR MAX TEMP:  59;

HERMISTON, OR  MOSUNNY   58  37  45 W21G29    30.03R
6HR MIN TEMP:  41; 6HR MAX TEMP:  58;

$$

WAZ036>038-211900-
NORTHEAST WASHINGTON

CITY           SKY/WX    TMP DP  RH WIND       PRES   REMARKS
SPOKANE GEIGER LGT RAIN  38  31  76 NE6       29.97R
6HR MIN TEMP:  31; 6HR MAX TEMP:  39; 6HR PCP: TRACE;

SPOKANE FELTS  CLOUDY    41  32  70 E3        29.99R
6HR MIN TEMP:  32; 6HR MAX TEMP:  41;

FAIRCHILD AFB  LGT RAIN  37  36  93 NE3       29.96S
6HR MIN TEMP:  31; 6HR MAX TEMP:  39; 6HR PCP: TRACE;

COEURDALENE,ID LGT RAIN  39  33  79 SW3       29.98R
6HR MIN TEMP:  33; 6HR MAX TEMP:  39; 6HR PCP: TRACE;

DEER PARK      CLOUDY    35  31  85 W3        29.99R
6HR MIN TEMP:  23; 6HR MAX TEMP:  36; 6HR PCP: TRACE;

$$

WAZ029>033-211900-
SOUTHEAST WASHINGTON

CITY           SKY/WX    TMP DP  RH WIND       PRES   REMARKS
PULLMAN        LGT RAIN  44  38  79 W15G22    29.97S
6HR MIN TEMP:  34; 6HR MAX TEMP:  47; 6HR PCP:  0.01;

LEWISTON, ID   CLOUDY    52  35  52 NE3       29.95F
6HR MIN TEMP:  46; 6HR MAX TEMP:  53;

WALLA WALLA    MOSUNNY   50  37  61 SW17      30.01S
6HR MIN TEMP:  45; 6HR MAX TEMP:  52;

PENDLETON, OR  PTSUNNY   53  35  50 W24G36    30.02R
6HR MIN TEMP:  45; 6HR MAX TEMP:  54;

$$


 

View Past Reports for Seattle, WA.

Products Courtesy of NOAA-NWS
NWS Information Parsing Script by Ken True at Saratoga Weather - Script by SE Lincoln Weather.